Theta_e
313 313 313 314 314 314 314 314 314 314 315 315 315 316 315 315 316 315 315 314 314 315 314 315 315 314 315 315 315 315 314 308 306 306 306 308 317 319 324 322 327 328 327 313 304 302 300 304 303 304 303 303 301 302 303 303 300 298 292 288 287 288 289 291 293 294 294 294 296 297 298 297 298 299 302 303 320 323 325 325 327 330 330 331 332 333 334 333
313 313 313 313 313 313 314 314 314 314 314 315 315 315 315 315 315 315 315 315 315 316 315 315 314 314 314 315 315 315 311 307 305 306 306 316 323 323 323 325 327 328 322 306 301 300 300 300 302 304 301 299 301 298 302 297 302 294 290 289 287 288 292 296 296 296 295 295 296 296 297 298 299 298 302 299 308 319 321 323 326 325 328 330 331 332 331 330
312 313 313 313 313 313 313 314 314 314 314 314 314 315 315 315 315 315 315 315 315 315 315 314 314 314 314 315 315 315 309 305 306 305 311 324 323 325 325 327 328 330 308 302 301 301 300 302 302 304 300 298 297 297 300 296 300 294 292 287 289 292 293 297 298 297 297 296 297 296 297 297 299 299 303 298 303 320 318 319 322 323 323 326 328 330 329 329
312 312 313 313 313 313 313 313 313 314 314 314 314 314 314 314 315 315 315 315 315 315 314 315 315 314 315 315 316 311 307 304 303 311 315 327 326 324 326 328 329 327 306 304 302 301 303 302 300 301 299 298 297 299 296 296 298 293 292 288 290 293 294 297 298 297 297 298 297 297 296 297 298 298 300 298 301 311 318 324 323 322 324 326 328 328 328 328
312 313 313 313 313 313 313 313 313 313 314 314 314 314 314 314 315 315 315 315 315 315 314 314 314 315 315 315 314 309 303 296 303 312 314 328 330 327 326 328 330 316 305 303 303 303 302 299 300 301 299 293 296 297 294 296 298 296 292 295 296 296 294 298 298 298 297 296 297 296 297 297 299 300 299 298 294 302 315 324 327 327 327 327 327 327 328 328
312 313 312 312 313 312 313 313 313 313 313 314 314 314 314 314 314 314 314 315 315 314 314 314 314 314 314 315 311 307 302 290 306 311 333 331 332 329 328 328 331 310 304 304 300 301 301 301 299 297 295 294 293 292 292 296 299 290 293 293 295 297 295 298 299 298 297 297 297 296 299 299 297 297 298 304 297 307 318 329 330 330 329 329 330 329 327 325
312 312 312 312 312 312 313 313 313 313 313 313 314 314 314 314 314 314 315 315 314 314 314 314 314 314 314 313 307 306 302 303 310 313 328 332 331 330 331 331 328 304 302 300 300 299 300 300 301 298 297 294 292 293 296 297 297 294 291 293 296 297 296 299 298 297 295 295 296 298 298 298 297 295 307 316 322 325 329 331 331 332 332 332 329 327 325 324
311 312 312 312 312 312 312 313 313 313 313 313 313 313 314 314 314 314 314 314 314 314 314 314 314 314 314 307 305 301 302 303 311 320 333 330 328 330 323 310 306 303 301 299 299 298 301 300 298 300 295 293 291 295 297 295 296 292 292 295 297 297 297 298 296 295 295 295 296 297 297 296 296 296 315 319 326 329 330 332 332 332 331 329 326 325 323 322
311 311 312 312 312 312 312 313 313 313 313 313 313 313 314 314 314 314 314 314 314 314 314 314 314 314 314 307 303 299 300 312 317 322 327 319 318 316 308 304 302 302 300 301 302 303 304 300 301 301 292 293 296 294 295 293 289 293 295 296 297 297 298 297 295 295 295 297 297 296 295 294 295 299 314 323 327 330 332 332 331 330 328 327 325 323 322 321
311 311 311 312 312 312 312 313 313 313 313 313 313 313 313 313 313 314 314 314 313 314 314 314 314 314 308 304 303 296 306 315 319 323 318 314 314 311 306 303 302 300 300 301 303 303 302 302 303 301 298 295 297 294 295 293 290 293 295 295 295 297 297 297 295 296 295 296 296 296 294 295 296 297 299 321 329 331 331 329 330 329 326 326 324 322 322 322
311 311 312 312 312 312 312 313 313 313 313 313 313 313 313 313 313 313 313 313 313 314 314 314 314 313 305 306 299 295 312 313 315 316 314 311 309 305 303 302 303 302 301 303 303 305 306 305 306 305 301 293 298 294 294 294 298 298 296 295 294 294 295 295 296 295 295 296 295 295 294 294 296 296 308 320 328 330 328 327 327 326 325 324 323 322 322 323
311 311 312 312 311 312 312 313 313 313 313 313 313 314 313 313 313 313 313 313 313 313 313 314 315 310 306 303 299 299 314 310 315 313 313 308 305 305 304 303 303 304 303 302 303 305 306 306 306 303 293 300 292 296 294 298 298 298 297 291 290 292 294 295 295 297 297 294 297 296 295 293 294 293 313 323 326 328 326 324 325 324 323 322 321 321 321 321
311 311 311 311 311 312 312 313 313 313 313 314 313 313 313 313 313 313 313 313 313 313 314 314 314 310 303 296 303 312 314 314 313 312 310 306 305 305 305 304 305 305 306 304 303 306 306 304 302 299 299 298 295 292 297 300 298 298 295 292 290 289 289 293 295 295 296 296 297 298 285 287 291 296 318 322 323 324 323 322 323 322 321 321 320 320 320 321
311 311 311 311 311 312 312 312 313 313 313 313 313 313 313 313 313 313 313 312 313 313 314 315 311 308 304 300 309 318 317 316 311 308 305 306 304 303 304 305 306 306 306 305 306 305 305 304 301 300 301 299 294 299 298 296 297 292 293 292 287 285 287 293 296 295 294 296 296 297 287 288 290 306 319 321 323 322 320 321 321 321 320 320 319 319 319 320
311 311 311 311 311 311 311 312 312 313 313 313 313 313 313 312 313 313 313 313 313 314 313 313 309 304 300 304 314 316 334 316 308 306 305 303 302 303 303 304 304 307 307 307 305 307 307 304 301 297 295 300 299 296 291 291 290 291 288 282 284 286 288 293 295 295 293 296 296 296 288 290 292 307 316 320 322 320 318 319 320 319 319 319 319 318 319 319
311 311 311 311 311 311 311 312 312 312 312 313 312 312 312 313 313 313 314 313 314 313 311 307 307 305 300 297 307 322 310 303 305 307 306 306 303 302 303 303 304 305 306 304 307 307 305 303 298 295 296 297 294 290 287 287 286 287 288 284 285 285 286 289 293 295 296 295 296 295 286 288 290 303 314 318 318 318 317 317 318 318 318 318 318 318 318 318
311 311 311 311 311 311 311 311 311 312 312 312 312 312 312 312 312 312 312 314 312 313 309 305 309 307 294 308 315 307 304 305 308 305 305 307 306 305 305 304 302 302 303 303 304 303 301 301 298 298 297 293 291 291 286 281 282 283 286 285 287 287 287 286 291 294 295 295 291 294 290 289 294 301 311 314 315 315 315 316 317 317 317 317 317 317 317 317
311 311 311 311 311 311 311 311 312 312 312 312 311 311 309 312 312 311 310 311 312 311 309 311 307 300 298 307 300 303 305 304 305 304 305 307 307 305 303 301 300 300 302 299 299 298 299 294 296 288 290 291 291 286 283 280 283 281 284 286 287 287 289 289 288 292 294 294 292 291 291 290 295 304 309 312 314 313 313 315 316 316 316 316 316 317 317 317
311 311 311 311 311 311 311 311 311 312 312 312 311 312 312 312 309 307 307 306 304 295 291 297 296 289 292 300 306 307 307 305 306 304 303 304 305 305 304 302 301 297 296 295 293 297 295 295 292 288 286 286 288 289 286 289 289 288 290 287 288 286 287 287 294 296 295 291 291 290 289 291 292 298 305 310 311 310 310 314 315 315 316 316 316 316 316 316
311 311 311 311 310 311 311 311 312 312 312 307 305 306 306 305 304 306 307 307 301 300 297 300 302 301 301 301 302 309 313 308 302 302 303 304 304 302 300 301 299 298 294 291 293 295 295 288 285 284 286 289 291 292 292 292 292 292 291 290 288 288 290 293 293 294 296 292 291 291 291 291 292 292 295 299 306 306 309 312 312 314 315 315 315 315 315 315
310 310 310 310 310 311 311 312 312 312 312 306 304 304 298 300 295 294 303 303 306 306 303 303 304 302 301 303 305 305 302 301 303 301 303 307 303 300 296 297 294 293 291 293 293 300 297 288 286 290 291 293 293 294 296 296 296 294 291 289 288 290 287 293 293 295 297 293 291 291 291 292 294 296 296 302 305 305 307 309 311 313 314 315 315 315 315 315
310 310 311 311 311 311 311 311 312 312 310 305 304 302 303 304 306 308 303 296 303 307 307 305 306 304 307 306 308 307 305 300 300 300 305 304 300 296 294 295 292 289 291 295 293 290 288 287 291 293 295 296 296 297 297 295 295 292 291 288 287 287 290 292 296 299 299 295 290 290 290 291 294 295 296 304 306 306 309 311 311 312 313 314 315 315 315 314
310 310 310 311 311 311 311 311 311 310 303 301 302 304 301 305 310 309 308 301 300 305 305 305 304 305 306 311 311 308 301 298 296 299 301 302 298 297 294 292 291 291 294 295 289 288 286 288 293 295 295 295 296 297 296 292 291 290 288 286 285 288 288 284 292 299 300 295 295 294 291 291 293 295 296 304 306 307 309 310 311 312 312 313 314 315 314 313
309 310 310 310 311 310 311 310 309 305 301 304 304 304 309 309 308 306 303 296 295 302 304 306 306 305 305 304 308 306 301 299 299 298 304 301 296 297 295 293 291 292 289 291 291 288 289 293 296 297 295 295 294 294 292 289 288 289 291 289 287 289 288 289 288 296 297 296 296 291 287 287 289 291 293 298 305 307 307 309 309 310 313 315 315 315 315 314
309 309 309 310 310 311 309 310 300 301 306 304 303 307 309 309 308 305 301 297 297 298 307 306 307 306 307 313 311 301 302 302 301 302 303 302 298 296 294 297 293 289 290 291 291 290 291 295 298 297 295 295 294 291 292 288 286 286 289 292 292 293 291 291 293 291 285 283 291 289 281 279 285 289 291 292 296 302 306 307 307 308 309 311 313 313 314 314
308 309 309 309 310 309 309 301 301 307 304 301 306 311 309 309 308 306 302 292 287 296 304 296 308 300 311 303 305 303 302 297 303 304 305 304 306 299 298 293 295 289 291 291 290 289 291 296 297 296 295 294 292 290 292 292 285 285 288 294 293 293 292 292 292 288 281 283 291 293 282 276 284 289 291 293 295 300 301 305 306 306 308 310 313 313 313 314
308 308 309 309 309 308 298 301 306 303 297 298 306 303 304 308 313 309 299 286 283 298 296 300 301 300 308 303 304 303 289 292 304 304 304 307 301 303 294 290 295 297 297 294 288 285 296 295 295 296 294 291 290 289 293 292 287 285 290 294 294 292 292 293 291 289 284 290 290 292 286 282 281 286 291 294 293 294 295 295 297 303 307 310 313 314 314 314
308 308 308 308 308 307 299 302 302 298 297 298 303 304 304 309 313 307 290 278 279 300 296 297 301 307 304 303 304 298 296 300 295 299 305 306 304 299 296 291 291 291 295 293 282 289 294 293 294 293 292 287 286 289 293 293 288 287 293 296 294 293 293 291 290 288 288 287 282 282 292 281 278 284 292 294 292 292 294 294 295 301 307 310 313 314 314 313
308 308 308 308 308 307 304 302 302 298 303 304 305 306 308 310 307 298 285 277 292 295 305 296 307 303 300 302 299 300 299 300 293 298 303 304 304 297 292 294 293 293 294 292 285 290 295 295 295 294 290 288 290 292 293 295 291 293 295 296 294 294 293 291 287 288 285 282 277 282 288 282 277 282 287 289 289 291 293 295 298 302 306 309 312 313 313 312
308 307 307 307 304 303 303 305 301 304 305 307 308 308 308 304 296 286 279 275 298 290 298 298 297 295 298 295 295 298 296 298 299 300 301 299 301 302 299 299 296 294 292 295 292 292 294 300 301 295 292 292 293 293 293 293 294 297 295 291 288 289 288 288 286 284 280 278 278 284 289 285 280 281 286 288 292 290 293 296 298 302 308 310 310 312 312 313
307 307 307 307 296 302 301 297 303 309 309 309 311 308 302 296 286 279 277 284 298 295 299 296 294 300 295 293 291 297 296 298 298 297 295 300 296 298 297 294 296 290 287 286 288 291 293 294 296 294 297 296 293 292 293 293 294 295 291 286 285 283 284 281 280 282 278 272 278 287 289 286 280 279 286 290 293 294 296 295 296 300 304 306 306 309 311 312
307 306 307 303 302 304 294 293 302 305 304 308 311 302 294 283 287 280 281 302 287 292 294 292 295 296 295 295 294 293 293 296 296 295 292 292 291 290 289 286 288 285 280 282 287 290 288 289 290 295 301 296 293 290 286 289 288 289 286 285 281 277 275 274 278 277 276 276 284 287 289 285 281 282 290 293 294 294 297 300 299 299 300 302 306 308 309 310
305 306 308 307 307 301 302 302 302 302 306 311 306 296 286 278 276 283 286 292 283 296 293 299 296 296 298 296 291 295 296 291 296 295 295 294 291 292 293 294 291 287 281 283 284 285 284 290 292 293 294 296 291 287 283 286 285 288 286 280 277 275 272 269 271 273 276 282 286 288 290 282 283 289 294 294 295 296 298 298 300 304 305 307 308 310 311 312
305 306 302 304 305 304 305 306 305 307 309 307 298 293 286 278 279 299 291 292 290 298 298 299 298 297 296 290 292 295 290 294 294 293 295 291 291 288 290 292 293 291 290 284 284 281 277 281 286 290 287 294 290 288 287 284 286 285 286 285 282 277 276 271 275 272 273 277 282 287 283 278 279 286 294 295 298 299 300 302 304 307 308 308 310 310 310 311
305 304 302 303 304 306 305 305 306 311 308 304 294 284 279 278 284 285 287 290 293 297 295 298 296 295 292 293 296 297 295 290 296 293 291 290 285 287 288 289 292 293 289 283 286 282 286 281 288 294 293 293 292 293 291 288 286 287 289 287 283 281 280 279 277 278 279 279 279 280 280 282 285 292 298 298 299 302 305 306 308 307 308 309 309 309 309 310
304 300 304 302 308 309 307 307 304 307 306 297 289 284 281 285 284 292 289 296 296 292 293 294 293 291 290 289 294 294 297 293 293 293 293 291 290 288 292 292 292 293 288 283 283 280 284 281 290 292 295 293 291 294 294 291 281 285 285 283 285 289 286 278 280 281 276 277 275 276 284 286 290 293 296 299 300 301 305 305 306 306 308 308 307 308 309 309
298 302 299 304 311 312 309 308 308 307 305 295 286 281 285 291 296 295 297 294 295 294 291 284 286 289 288 288 288 291 293 296 294 292 286 292 287 290 292 293 297 294 294 290 285 287 280 282 288 290 290 295 295 294 293 291 290 286 283 283 289 292 290 284 276 278 274 271 272 281 276 280 284 280 292 294 294 296 301 302 304 305 307 306 306 307 307 307
297 299 305 304 307 310 312 311 309 307 301 295 284 290 295 292 299 297 298 297 296 294 289 288 287 293 288 289 289 292 294 290 291 290 288 293 290 300 293 293 296 296 295 294 286 289 285 280 284 290 293 293 294 291 289 292 291 288 286 291 285 278 280 280 279 272 271 272 273 279 281 282 283 282 288 291 294 293 296 300 302 303 305 305 306 306 306 307
297 299 298 304 308 310 314 312 308 304 298 291 283 288 295 297 300 297 297 296 295 293 287 288 286 291 291 288 291 294 294 286 291 289 286 289 286 295 295 295 293 296 296 294 288 287 286 278 281 290 291 291 290 287 283 287 290 293 291 288 288 282 278 277 278 278 275 269 271 275 280 278 288 286 291 290 292 295 295 297 298 301 304 305 306 306 305 305
297 295 294 306 303 309 314 311 305 301 294 286 285 290 295 294 298 299 298 297 294 291 288 288 291 286 291 290 292 289 297 292 291 290 289 290 290 298 295 298 294 296 294 294 290 289 283 283 277 284 291 290 282 285 285 287 284 286 284 284 286 286 286 283 284 282 279 271 269 269 272 278 283 291 293 294 294 295 298 299 299 301 303 304 306 305 305 305
298 293 293 304 308 311 312 306 298 294 291 291 293 294 296 295 297 298 299 299 295 297 292 291 290 286 288 288 288 293 291 292 292 291 291 292 288 283 296 294 295 294 295 292 290 288 282 281 280 280 284 282 285 290 290 290 289 287 285 283 284 282 280 279 276 283 283 278 275 270 270 277 287 299 298 294 295 297 300 301 300 301 302 303 304 305 305 305
294 287 292 305 307 312 306 296 294 295 292 291 291 295 295 304 296 296 296 297 295 291 296 294 293 292 290 290 291 291 290 289 291 291 294 289 294 291 293 297 295 294 289 285 288 293 287 284 279 281 283 286 289 291 293 293 291 289 288 287 289 284 282 276 274 277 281 281 283 277 275 277 287 294 297 296 296 300 301 302 301 301 300 302 303 305 305 306
294 291 303 305 308 309 301 290 294 291 291 292 298 297 299 297 295 296 294 295 293 295 295 294 294 291 292 294 293 291 292 290 292 289 294 294 293 294 296 297 297 297 292 287 290 290 307 278 278 280 284 287 289 291 292 293 291 287 287 288 287 284 283 281 278 278 280 280 279 278 274 277 286 293 295 296 298 300 300 302 301 300 300 300 301 303 304 304
294 294 297 306 310 307 297 285 287 286 288 294 294 293 296 295 294 293 293 293 292 294 294 295 294 294 292 294 292 290 292 284 292 292 290 293 293 300 299 298 301 295 294 291 287 290 283 283 280 276 273 276 281 285 287 289 288 284 284 285 288 288 288 287 285 281 279 282 282 276 273 278 290 294 295 298 299 299 300 300 300 300 298 299 300 301 301 302
293 297 297 301 304 304 295 293 287 281 289 291 292 292 293 294 295 295 293 293 295 293 292 291 293 293 292 293 292 291 292 289 286 293 295 293 293 299 298 298 299 296 301 302 306 294 285 284 279 273 270 271 271 271 274 277 281 283 286 286 287 288 286 283 279 278 276 281 282 277 277 282 287 291 295 297 297 297 298 299 300 299 299 299 299 300 300 301
293 283 289 294 296 298 298 300 295 291 286 287 284 287 293 289 293 296 295 294 296 295 294 294 295 295 291 291 289 289 289 293 290 290 291 289 291 295 296 297 299 298 305 310 301 296 285 285 280 276 276 275 277 281 287 287 283 279 284 284 285 286 287 283 279 276 277 278 276 280 285 283 288 289 292 295 296 296 296 297 298 298 298 299 299 299 299 299
294 287 285 284 293 294 293 296 294 294 287 292 282 290 289 291 293 293 296 292 295 294 293 293 293 291 289 289 287 287 290 289 292 291 290 292 293 293 296 297 299 305 305 301 301 287 284 282 285 283 283 283 285 286 287 288 285 285 284 284 284 284 285 282 279 281 282 276 273 280 284 285 287 288 289 292 294 295 296 297 297 297 298 299 299 299 302 298
285 288 292 293 288 285 286 289 295 293 294 294 288 293 290 290 290 286 294 296 295 295 289 291 291 291 290 290 288 282 286 287 288 284 291 291 291 292 290 293 292 301 298 292 295 287 282 280 286 286 285 285 286 286 287 286 285 285 284 284 283 284 284 281 283 284 283 279 276 282 283 282 284 287 288 289 291 296 295 295 297 297 297 298 298 298 298 298
289 289 292 295 288 294 292 294 296 294 291 293 288 290 287 288 288 290 290 291 293 291 291 281 287 289 289 289 287 283 285 280 280 287 286 288 289 287 286 289 292 291 290 289 291 289 284 280 287 286 285 286 286 286 286 285 284 284 284 284 285 284 283 284 283 284 284 282 282 283 284 283 287 287 289 290 291 293 293 295 295 294 293 296 297 298 298 298
283 283 285 291 292 293 296 294 295 291 287 292 285 290 289 288 287 290 292 289 282 288 293 287 287 288 288 287 286 283 285 286 285 281 288 287 285 287 286 288 285 288 290 290 291 290 285 281 290 285 279 283 286 287 286 285 284 282 284 284 284 284 284 284 283 283 283 283 282 283 282 282 287 289 290 291 291 293 293 292 292 293 293 294 294 295 295 298
288 290 291 287 287 290 292 290 290 289 286 288 287 289 289 288 288 291 290 293 289 287 289 287 289 287 288 287 286 285 287 287 288 288 289 289 284 291 286 286 289 286 288 287 288 288 285 282 285 281 276 278 284 284 284 284 284 283 283 284 284 283 281 283 281 283 279 280 280 282 280 278 285 288 289 290 291 291 290 290 291 292 292 293 293 294 295 295
291 292 294 289 283 288 285 288 289 288 284 288 290 289 288 288 290 291 284 292 293 292 291 290 289 286 285 285 285 286 288 289 289 290 291 291 292 291 290 290 289 288 286 286 287 284 282 280 279 277 275 274 282 283 282 280 279 276 276 282 285 284 284 284 285 286 285 282 279 277 278 284 285 288 288 288 289 290 290 290 289 290 291 292 293 294 295 296
Wind_Speed
11 10 11 11 10 11 11 11 11 11 11 11 11 11 11 11 11 11 11 11 10 11 11 12 12 12 12 12 13 14 11 6 10 5 4 13 9 15 7 10 6 9 5 3 3 1 2 1 2 4 1 1 2 0 3 2 2 2 2 2 5 5 5 4 1 2 4 5 6 9 3 4 3 4 3 5 10 9 8 9 5 13 11 11 15 18 18 16
11 11 11 11 11 11 11 11 10 10 11 11 10 11 11 11 11 11 11 11 10 11 11 11 11 12 12 11 12 12 8 7 9 8 16 7 12 13 15 14 15 7 10 2 4 2 1 2 4 1 2 1 1 2 1 2 2 3 1 2 9 4 4 1 0 3 4 6 7 5 4 4 1 3 0 4 2 6 9 5 6 13 13 15 16 17 17 15
11 11 11 11 11 11 12 12 12 11 11 11 11 10 10 10 10 10 10 10 10 10 11 11 11 12 12 11 11 9 8 6 5 9 14 16 16 14 14 14 10 12 9 4 4 4 5 0 3 1 2 2 2 4 1 4 0 3 4 5 7 4 4 3 1 5 4 5 3 6 4 3 1 3 0 3 4 8 10 7 3 12 14 14 14 13 13 12
12 12 12 12 11 11 11 11 11 11 11 11 11 11 11 11 11 10 10 10 10 10 9 11 11 11 11 11 10 6 4 4 2 4 4 2 17 17 15 13 9 12 4 1 2 3 1 2 3 1 2 4 4 2 2 4 1 2 3 4 5 5 5 6 4 5 5 7 4 1 4 6 6 4 1 2 7 1 4 10 14 13 17 17 15 15 11 11
12 12 12 12 12 11 11 12 12 12 12 11 11 11 10 10 10 10 10 10 10 10 10 10 11 12 12 12 10 3 3 1 1 2 2 3 12 18 15 12 10 6 5 3 2 1 1 2 1 1 1 4 3 1 3 3 4 0 5 6 8 6 3 9 8 7 6 6 6 1 1 2 4 2 5 1 4 6 7 7 11 18 20 21 18 13 10 10
12 13 12 12 12 12 11 12 12 11 12 12 12 11 11 11 10 10 9 9 9 10 10 10 11 11 11 11 6 2 0 2 2 3 2 4 9 14 15 12 9 5 4 1 1 1 1 1 3 1 2 3 3 5 4 5 2 4 5 5 7 8 6 3 4 3 3 3 2 2 1 1 3 4 2 1 3 4 1 9 13 15 15 16 15 14 12 11
12 13 12 12 12 12 12 12 12 12 12 12 11 11 11 11 11 11 10 9 9 9 10 10 10 11 10 10 2 2 1 7 3 7 4 5 6 10 10 9 9 6 4 3 2 2 2 0 1 3 1 3 4 4 7 2 4 5 7 5 8 7 10 12 7 5 5 6 4 2 1 0 1 3 1 3 3 2 12 12 14 14 15 16 15 10 13 11
13 13 13 13 12 12 12 12 12 12 12 12 12 11 11 11 11 11 10 10 9 10 10 10 10 10 8 5 0 1 1 7 10 2 6 8 8 10 10 5 6 5 5 6 6 3 1 2 4 1 3 3 2 3 2 2 2 5 6 7 9 6 7 8 7 5 5 6 7 3 3 6 3 1 2 2 7 12 14 13 14 15 16 15 15 14 12 12
13 13 13 13 12 12 12 13 13 13 12 11 11 12 12 11 11 11 11 10 10 9 9 9 9 7 5 2 1 3 5 7 4 7 8 8 7 8 9 4 4 7 4 4 3 2 1 3 3 3 4 3 3 6 4 2 6 4 11 9 7 7 8 8 4 5 5 4 5 5 4 4 6 6 3 5 8 12 13 13 15 16 17 15 14 13 13 11
14 13 13 13 12 12 12 13 13 13 12 12 11 12 12 12 12 11 11 10 10 9 9 8 9 6 3 1 1 1 3 5 3 8 7 8 7 7 4 3 7 5 4 4 3 4 4 6 6 2 2 5 2 4 3 3 6 3 5 4 6 12 9 6 6 4 4 2 1 3 3 2 2 5 1 2 10 13 14 14 12 15 15 13 12 11 11 13
14 14 13 13 13 13 13 13 13 13 13 12 12 11 12 12 11 11 10 10 10 9 8 8 7 4 3 2 1 4 5 4 1 5 8 9 9 7 8 5 7 5 5 3 8 9 7 6 3 2 4 4 1 4 1 3 2 6 5 6 6 6 5 4 2 5 1 3 2 4 5 4 1 2 10 8 7 15 17 13 13 13 13 12 12 11 9 10
15 14 14 14 14 13 13 13 13 13 13 12 12 11 11 11 11 11 11 10 9 9 8 6 5 1 2 1 2 8 3 1 5 4 7 8 6 9 7 6 7 7 7 5 3 3 5 9 4 1 4 0 3 4 3 4 4 6 5 4 5 5 5 3 1 2 0 3 3 0 1 3 1 2 13 13 9 11 16 13 13 12 11 11 10 9 8 9
15 15 14 14 13 13 13 13 13 13 13 13 12 12 11 12 11 11 10 9 8 7 7 6 5 2 2 2 10 10 1 1 3 5 3 4 3 3 5 4 8 7 6 5 5 6 7 4 4 8 8 1 1 1 5 5 5 5 4 1 4 4 6 9 3 5 1 2 1 3 5 8 7 2 16 14 12 12 15 13 12 11 11 10 10 10 9 8
16 15 15 14 14 14 13 13 13 13 13 13 12 11 11 11 12 11 10 9 9 8 7 7 1 1 1 6 6 4 4 7 5 4 5 5 4 2 4 6 6 6 4 4 7 5 5 6 4 6 2 1 2 3 6 4 2 1 4 2 1 4 7 2 4 2 4 4 4 3 5 9 4 11 16 16 17 17 15 13 11 12 12 11 10 10 10 9
16 16 15 14 14 14 14 13 13 13 13 13 12 11 10 11 11 11 10 8 8 7 6 4 1 0 0 8 7 8 14 6 8 8 8 6 4 0 4 5 6 7 7 8 4 5 8 4 3 1 1 1 1 3 5 3 3 2 5 4 5 3 8 8 3 4 8 2 6 5 5 10 3 14 14 13 13 15 15 12 13 12 11 10 9 9 9 8
17 16 15 15 14 14 13 13 13 13 13 13 12 12 12 12 11 10 9 7 6 4 1 1 3 2 2 7 3 7 3 4 7 12 9 9 6 6 5 6 4 5 7 5 8 4 3 1 2 2 2 4 2 1 3 7 7 5 1 3 4 2 6 9 6 7 11 5 2 10 7 2 4 15 17 16 16 15 15 13 12 13 12 11 10 9 7 7
18 17 16 15 14 14 13 13 13 13 13 12 12 12 11 11 10 6 6 4 2 3 3 0 2 3 0 3 4 3 3 3 3 3 5 5 7 6 2 2 3 5 4 4 6 4 3 0 1 1 1 2 2 2 3 4 5 5 1 3 4 5 5 5 9 5 7 7 4 6 6 3 1 11 12 13 15 15 16 14 13 11 10 9 9 9 8 9
18 18 17 16 15 14 13 13 13 13 13 11 11 8 7 5 4 7 3 1 2 3 3 4 3 2 9 2 3 4 1 2 3 4 8 6 8 5 3 4 4 4 0 3 3 1 1 2 0 4 2 2 1 3 3 4 4 2 3 3 6 3 6 12 6 5 8 8 10 6 7 3 3 9 10 12 11 14 16 15 13 12 11 10 9 9 10 10
19 18 18 17 16 14 14 13 12 12 12 11 13 13 8 1 2 1 0 2 1 1 1 1 2 2 3 4 4 5 2 6 3 6 4 4 3 4 3 2 1 3 1 1 4 1 1 1 4 1 3 2 2 5 7 8 4 6 4 4 3 4 5 5 12 11 10 7 7 7 7 7 5 8 10 14 12 10 10 11 12 11 11 11 10 10 9 11
19 19 18 18 17 15 14 12 11 12 10 6 5 1 2 1 0 0 0 2 4 6 7 6 9 4 10 11 4 2 2 0 3 6 5 4 3 3 4 3 1 2 3 4 2 2 3 3 4 6 7 8 6 7 8 10 9 6 2 2 3 2 7 8 7 2 10 7 7 9 7 2 2 3 2 0 3 6 10 11 10 10 10 10 11 10 9 9
19 19 18 18 17 16 14 11 8 7 5 2 3 1 1 2 2 2 3 8 7 10 10 6 13 12 11 6 7 5 1 3 5 5 8 5 3 5 3 4 3 3 4 6 5 2 3 2 7 9 10 9 10 8 4 5 3 1 1 3 7 1 4 8 4 3 1 5 1 2 8 5 3 1 6 11 5 10 10 10 12 13 11 11 13 12 10 8
20 19 19 19 18 17 15 12 8 6 4 1 1 1 3 4 4 0 1 6 5 14 11 14 8 11 10 11 13 5 6 2 4 4 2 7 3 6 2 3 3 6 2 0 1 1 1 6 11 11 11 4 4 4 4 7 2 1 0 1 3 5 4 7 4 6 3 5 1 1 7 5 2 2 5 13 15 9 12 17 17 15 11 9 11 12 11 7
20 20 19 20 19 17 15 13 6 2 2 1 1 2 5 2 3 4 1 4 11 5 10 10 7 12 13 8 8 5 6 6 7 5 4 5 2 7 3 3 4 4 1 1 5 2 3 7 15 15 4 4 4 2 2 2 1 1 2 1 2 2 3 5 8 3 6 3 0 0 1 2 6 2 3 9 12 9 10 11 11 13 14 13 14 13 12 10
20 20 19 18 19 18 16 12 8 1 3 4 3 7 8 5 7 5 4 3 6 10 7 9 10 6 9 7 3 8 8 4 4 7 4 5 6 3 2 4 3 1 6 4 5 7 10 12 3 3 4 7 5 5 2 1 1 2 1 1 1 0 1 2 5 6 4 3 2 3 6 3 5 2 3 1 3 8 5 6 6 7 11 12 9 8 14 16
21 20 20 19 19 19 19 13 2 4 4 2 6 9 11 10 7 3 1 4 2 6 3 3 6 4 8 3 3 2 4 2 9 4 5 9 4 3 4 2 2 6 6 4 3 4 10 13 6 5 5 5 6 2 2 5 1 3 5 5 4 2 3 6 3 3 7 4 4 4 2 4 3 2 3 2 3 6 7 11 11 9 5 4 9 11 8 7
21 20 20 18 19 20 18 3 1 3 3 6 7 6 6 7 4 5 2 2 5 5 1 2 4 5 3 3 4 3 4 6 9 5 8 9 9 6 2 2 4 7 6 3 5 4 8 10 6 8 5 6 8 5 4 6 2 1 4 4 3 3 3 3 5 2 1 1 3 2 4 2 6 4 3 1 6 11 6 9 11 9 9 8 10 10 12 12
19 20 20 19 17 17 6 0 3 6 2 4 1 4 8 8 3 3 2 2 3 3 3 1 3 1 1 3 6 3 0 7 4 4 8 7 7 4 3 6 1 1 2 1 3 4 1 2 5 3 5 4 3 2 3 7 6 2 4 3 4 5 5 4 5 2 2 1 4 4 3 2 2 7 2 0 4 3 4 5 5 10 12 12 10 11 12 12
20 20 19 18 16 9 3 4 8 3 6 5 6 6 7 9 1 4 3 1 1 1 1 1 3 1 1 2 9 6 6 2 2 4 11 11 6 4 5 5 6 4 1 1 5 7 0 4 5 2 2 2 4 3 2 5 4 5 3 4 1 4 5 5 6 3 0 0 5 4 2 2 1 6 2 2 1 3 9 2 6 11 14 13 12 12 10 10
20 19 18 17 17 15 3 3 1 5 5 3 8 8 6 3 4 4 3 1 4 1 2 3 5 1 2 1 4 8 6 1 1 2 2 6 8 6 6 8 3 2 2 5 4 4 2 6 10 7 5 3 4 5 5 7 2 4 4 1 1 1 3 5 2 5 2 4 2 2 1 1 4 6 7 3 2 2 3 3 7 11 13 11 11 9 8 8
21 19 17 15 12 2 1 2 7 9 5 8 9 8 4 3 2 1 1 2 1 2 1 1 2 3 3 3 3 5 7 1 3 1 4 6 6 1 2 3 4 2 3 1 3 8 6 6 6 5 5 6 6 4 5 4 7 1 3 2 5 7 5 2 7 4 5 1 4 3 1 2 1 4 2 1 1 2 2 0 1 6 9 11 9 11 10 10
22 20 17 11 2 3 0 5 10 10 8 6 8 3 3 5 2 2 1 4 1 4 0 1 3 2 3 4 3 4 5 1 1 5 0 0 5 2 1 2 3 2 2 3 4 6 6 1 1 2 4 2 3 0 2 2 0 1 1 2 4 5 8 7 5 5 2 1 4 3 2 5 1 3 6 6 5 3 11 5 5 7 8 9 7 7 7 7
22 21 17 6 6 2 4 7 2 1 4 8 5 4 4 1 4 3 5 4 1 2 1 2 3 1 5 4 6 3 5 2 3 4 7 5 4 6 4 5 3 1 3 1 6 4 4 1 3 3 3 9 1 1 5 2 4 6 5 7 5 1 4 2 3 1 1 3 1 2 2 3 1 4 7 8 8 2 1 11 12 10 8 7 8 9 8 7
23 21 22 12 9 5 9 14 6 7 8 5 3 3 2 4 2 5 4 2 2 1 1 3 2 1 0 0 3 5 5 7 2 4 7 2 5 8 5 9 7 5 3 2 2 1 5 4 4 4 4 1 5 3 1 1 2 4 2 4 5 1 1 1 2 1 3 4 4 0 3 0 3 5 2 5 4 2 6 5 5 11 11 10 9 8 8 7
23 22 9 4 8 11 6 2 3 3 2 4 4 6 5 2 4 5 5 4 5 3 5 3 9 6 0 2 2 3 3 4 5 3 9 3 4 3 3 4 5 3 2 1 1 3 0 4 4 2 1 2 3 5 9 3 2 2 4 6 7 7 5 3 3 4 4 5 3 5 3 2 2 2 4 4 5 7 8 7 7 8 8 8 8 10 10 9
26 17 8 5 5 10 13 9 2 0 1 0 5 4 5 6 2 2 3 2 2 2 4 3 6 1 8 6 2 7 6 3 5 4 7 7 4 3 5 5 5 5 3 3 3 2 4 5 4 4 5 4 6 3 4 3 4 1 2 6 5 5 7 3 6 6 3 0 2 1 2 4 3 2 2 0 8 10 11 12 12 10 7 8 10 10 8 7
13 5 3 4 4 5 11 8 5 3 5 4 5 1 6 6 2 3 3 3 0 2 9 11 7 2 0 2 4 7 5 0 3 2 1 4 5 7 6 4 4 9 6 6 3 0 1 2 3 6 2 5 4 3 1 3 1 2 3 1 4 6 9 4 2 0 5 5 3 1 0 2 5 2 3 3 9 9 8 10 13 10 8 8 9 8 6 7
7 7 4 3 3 3 8 9 8 7 5 6 4 4 6 4 5 4 2 0 1 6 4 4 4 2 2 1 2 6 4 1 1 4 3 1 3 2 2 3 5 8 11 9 1 2 5 5 6 3 3 2 4 2 4 4 7 4 2 6 1 4 5 6 4 1 2 3 3 0 3 1 3 3 4 6 4 1 8 8 11 13 11 11 7 7 8 7
7 4 6 6 11 6 9 10 11 5 5 5 3 6 2 3 3 7 3 6 6 2 3 1 4 2 1 2 4 3 6 4 4 2 4 2 3 2 4 2 5 3 4 2 6 2 4 2 1 2 1 6 6 2 5 1 1 3 2 2 4 1 1 4 5 0 1 1 2 1 0 1 1 3 5 4 1 2 3 2 8 9 8 9 8 8 7 7
3 2 6 7 2 10 10 12 7 7 4 2 3 1 4 6 4 6 6 6 3 4 3 4 4 2 4 6 6 2 1 4 2 0 1 1 4 1 1 2 4 3 7 7 4 1 4 3 3 3 2 2 2 5 2 6 7 1 2 3 0 6 3 2 2 3 6 2 2 2 2 2 2 2 2 3 3 8 3 4 3 2 6 9 8 7 8 8
3 2 4 4 3 8 13 9 6 5 4 4 4 3 2 3 5 7 7 3 3 1 4 4 2 0 1 4 5 4 1 4 0 2 1 2 2 4 7 7 1 1 7 6 3 1 1 2 2 3 4 3 2 2 3 2 3 7 5 1 1 2 2 5 1 2 1 2 2 2 2 1 4 4 2 2 1 3 10 7 4 3 2 3 6 8 7 6
2 1 5 3 5 7 11 7 4 5 3 3 3 2 3 3 3 5 9 7 4 5 6 3 1 1 2 0 2 3 6 6 4 4 2 1 2 1 1 3 7 1 2 7 7 3 3 1 3 3 5 1 2 1 4 1 1 2 3 2 8 6 2 2 3 2 2 3 1 3 2 4 6 1 1 1 0 5 7 12 8 5 4 4 4 6 7 6
2 2 5 4 5 6 10 6 0 1 2 3 4 3 2 4 5 10 8 7 7 6 5 3 2 2 3 3 3 2 4 3 5 6 2 3 1 2 2 9 7 4 4 1 1 1 4 3 4 0 2 1 3 1 0 4 1 2 2 5 2 2 7 6 2 3 1 0 4 3 4 2 4 3 3 5 4 7 8 10 8 5 4 4 3 4 4 6
1 4 10 9 6 5 8 3 4 5 3 4 2 4 6 6 6 6 7 6 7 5 1 0 2 4 3 0 1 1 2 1 7 4 5 3 2 3 2 8 6 7 5 1 1 1 5 2 2 4 5 3 3 1 5 8 6 7 6 5 4 2 2 7 5 5 3 1 1 1 1 2 4 1 3 4 5 5 4 7 11 5 4 4 5 5 5 4
2 4 7 5 9 5 6 3 2 7 6 4 2 5 4 4 4 5 5 5 4 1 1 0 3 3 2 1 1 1 4 2 2 9 2 5 4 5 8 2 3 1 1 2 2 3 2 2 7 2 3 7 8 7 6 6 7 2 1 3 1 3 6 3 4 2 5 1 4 6 3 2 1 3 3 6 9 7 7 5 5 9 4 4 5 4 4 4
4 2 2 7 10 7 4 3 3 3 2 1 1 3 3 3 6 7 4 2 5 5 2 3 5 4 3 2 1 1 8 2 1 5 0 6 5 9 8 5 4 4 1 2 5 3 5 1 2 2 2 0 1 1 2 4 4 3 1 4 4 6 4 3 1 2 4 1 4 2 1 4 5 2 4 8 9 7 5 6 6 6 7 6 5 5 5 5
3 3 5 6 6 6 4 4 2 4 0 2 2 5 2 3 4 3 2 4 6 5 8 5 10 8 6 4 4 5 6 8 6 1 5 3 2 1 2 5 4 3 4 9 4 4 2 1 3 4 6 6 3 2 2 0 2 3 7 4 4 2 3 6 4 4 3 1 2 2 7 2 1 4 4 5 8 10 7 6 7 6 5 6 5 6 5 5
1 5 3 7 7 6 4 3 10 8 6 2 1 1 2 0 2 2 7 2 7 2 4 12 9 7 4 3 3 7 7 4 7 6 5 2 4 2 5 6 5 5 9 5 4 5 3 2 0 7 4 5 4 1 2 2 1 2 4 5 4 4 1 5 4 0 3 5 1 1 1 9 1 3 2 1 5 6 6 8 7 7 8 8 7 5 5 4
5 2 3 1 1 4 8 9 9 9 7 4 2 4 5 5 6 4 3 3 2 8 4 7 14 12 12 4 5 6 7 6 8 4 7 6 3 6 4 5 3 2 4 1 2 4 4 2 2 2 1 3 3 2 3 3 3 2 5 4 5 3 7 5 1 1 2 1 2 0 2 5 2 3 4 4 2 5 4 2 1 3 3 1 1 4 5 5
3 2 1 6 3 2 3 7 10 8 8 11 1 8 8 10 10 7 3 3 6 7 7 4 6 12 13 11 6 4 7 3 5 3 3 5 3 3 4 5 5 8 5 3 4 1 4 0 1 2 2 4 4 5 6 9 5 4 4 3 0 5 3 5 4 3 6 3 2 8 8 6 2 4 4 4 5 5 4 5 7 7 4 4 5 5 4 3
5 3 6 3 1 3 6 7 3 7 9 11 5 6 6 8 8 9 12 8 3 5 6 8 6 9 10 12 10 6 3 3 1 1 4 5 7 4 1 2 2 6 5 1 0 4 4 1 2 2 3 2 3 6 7 7 7 5 6 6 4 3 6 4 3 2 8 7 4 7 10 6 3 2 2 3 4 7 12 12 8 6 9 8 7 4 3 1
2 1 1 3 6 8 6 9 7 7 9 12 8 7 6 11 7 6 9 9 9 3 2 4 2 6 9 10 10 8 4 1 1 1 4 3 3 1 2 2 2 0 4 3 2 2 4 1 2 3 2 1 1 4 3 5 7 7 6 8 9 5 7 4 4 3 3 5 2 8 7 2 4 6 3 6 10 12 10 8 8 8 7 8 8 7 7 6
1 2 0 2 3 6 3 4 9 7 9 7 8 8 5 6 6 3 3 8 9 8 2 4 4 9 5 11 8 4 6 4 5 6 4 5 5 5 2 3 1 0 0 1 0 2 1 3 2 2 3 2 2 3 4 4 5 4 4 6 3 5 5 4 8 11 5 4 5 6 2 1 2 3 8 8 9 10 9 6 5 7 7 7 7 5 6 6
Wind_Direction
325 319 318 318 318 316 315 314 313 311 310 310 311 310 310 310 308 309 309 308 311 312 309 301 304 308 309 312 314 315 327 324 307 298 227 240 198 220 203 221 251 232 177 197 273 328 319 288 261 261 333 63 257 262 240 209 180 96 196 149 247 223 240 225 147 349 297 322 307 317 320 84 53 341 329 49 57 90 59 50 44 51 61 94 110 114 124 132
324 323 319 316 315 313 311 310 308 307 307 308 308 308 311 311 311 309 309 315 316 305 304 302 305 306 309 311 316 323 335 299 287 270 236 222 194 204 221 240 255 264 138 157 215 195 198 272 246 235 141 257 226 224 141 270 150 141 195 146 237 205 247 29 159 292 327 291 319 273 320 34 179 200 303 96 103 83 63 39 77 84 80 89 103 119 127 135
324 323 319 316 311 310 308 310 308 307 306 307 305 305 309 306 304 304 309 306 307 307 303 307 310 309 301 311 319 337 333 307 271 260 259 225 211 199 211 220 235 158 157 164 206 181 188 242 5 31 221 240 275 233 175 257 303 228 160 240 248 215 251 270 227 256 246 253 310 320 320 9 270 320 301 105 123 113 126 129 60 110 117 112 115 116 126 130
325 322 318 312 309 306 307 304 303 301 301 302 302 305 308 307 306 308 306 307 306 308 313 308 305 303 308 316 322 331 311 276 294 250 251 132 194 202 204 206 186 177 167 134 131 161 176 333 319 314 293 213 277 203 220 252 163 267 138 211 235 220 247 266 228 240 267 269 277 227 324 8 331 319 104 186 85 254 179 169 152 150 135 132 134 134 134 122
325 321 316 312 307 306 306 305 302 301 300 299 299 300 301 301 303 308 309 309 311 315 310 307 309 309 313 311 320 343 311 32 191 228 262 304 187 195 200 191 191 178 165 140 133 254 217 250 23 348 210 260 241 290 239 243 218 22 212 218 229 257 252 253 255 261 251 272 293 272 66 290 302 12 349 335 139 212 197 207 138 141 142 142 143 132 122 116
324 319 314 310 307 305 307 302 298 296 296 299 300 302 303 303 301 299 299 300 305 306 308 312 313 311 312 318 304 271 281 87 283 278 66 1 175 185 188 182 172 148 137 159 140 90 106 260 153 172 242 195 218 187 261 207 180 245 278 272 247 240 233 263 249 229 232 282 282 338 248 257 54 311 311 95 193 226 242 131 137 139 136 127 121 126 120 117
325 320 314 309 307 306 305 301 298 296 296 295 295 296 297 298 299 301 302 306 306 306 308 312 310 314 326 316 254 208 190 271 285 250 78 91 117 142 147 144 143 137 142 135 153 185 165 149 155 229 257 240 260 206 243 241 170 201 251 254 267 234 232 246 253 219 240 213 223 217 72 187 14 336 312 44 324 110 112 122 119 118 115 118 114 104 114 119
325 319 315 310 307 307 304 301 298 296 295 296 295 295 294 294 294 298 303 304 301 299 304 308 311 317 345 342 159 280 126 251 243 167 135 100 95 108 113 117 144 146 153 184 169 169 113 227 226 234 228 191 221 185 263 310 190 212 256 248 252 255 243 245 226 242 259 254 243 233 228 256 185 197 102 65 102 108 113 117 117 113 106 102 103 110 113 112
324 318 315 310 307 308 303 299 298 296 296 297 293 294 296 297 297 299 299 297 296 299 302 306 309 321 338 270 297 334 262 233 214 156 137 124 125 118 129 141 172 157 185 187 178 129 137 256 244 195 262 208 247 253 270 251 302 224 227 245 257 251 248 246 241 236 235 250 235 233 236 254 251 121 58 125 102 108 111 112 118 115 112 113 118 124 129 128
324 319 313 310 308 306 302 298 297 297 296 292 293 293 293 294 296 296 299 299 296 295 297 300 310 344 351 257 251 37 261 158 106 145 136 130 123 129 172 148 162 168 165 202 152 182 185 222 185 225 301 280 273 257 247 172 237 232 280 248 239 251 248 260 247 282 285 248 212 215 248 265 271 143 103 309 130 122 116 119 122 122 120 117 117 120 128 129
328 320 316 313 313 306 301 299 297 297 293 291 290 290 289 289 290 294 295 294 296 296 296 297 304 342 305 269 118 218 250 107 109 131 147 142 135 140 191 175 177 172 188 172 199 196 219 235 260 330 282 227 348 292 246 217 335 303 254 281 270 257 222 224 278 283 325 304 188 195 248 228 329 116 164 156 169 136 126 127 126 126 124 120 122 127 138 133
329 325 321 319 311 304 300 300 298 294 293 291 288 289 292 294 295 295 294 294 294 296 295 289 305 285 254 250 181 230 281 138 146 158 160 148 158 190 183 177 179 188 178 197 263 242 223 233 231 297 247 294 333 309 298 282 323 278 287 307 285 341 331 314 257 255 156 269 270 266 344 317 334 228 163 148 155 141 125 127 129 127 122 121 121 125 134 138
335 330 322 315 309 305 304 301 297 295 295 294 293 292 291 290 290 290 291 291 289 289 292 317 325 275 294 317 227 233 231 20 156 161 189 195 154 180 193 189 193 200 186 189 228 229 230 225 212 223 235 157 201 242 279 319 279 310 337 202 341 354 317 264 258 260 267 243 144 98 289 267 262 114 152 146 147 139 125 133 139 134 131 133 137 138 137 137
338 331 325 318 314 311 306 300 299 298 296 295 292 290 289 289 288 288 287 283 281 272 269 277 300 322 206 248 275 262 214 176 193 168 216 201 130 235 214 225 211 223 239 228 255 254 278 249 214 233 206 199 279 289 340 320 354 305 273 37 321 17 280 239 198 253 296 209 177 125 229 272 275 131 161 157 152 146 139 146 147 141 142 146 146 145 148 160
339 337 331 325 317 311 306 303 302 300 297 295 295 291 283 285 284 283 283 283 269 252 255 242 219 139 357 270 266 264 266 144 180 202 202 155 168 299 228 233 237 215 220 228 240 249 237 289 292 46 273 258 46 29 317 347 328 301 20 318 330 212 265 284 259 214 219 286 141 155 240 247 244 165 161 158 156 139 140 154 152 148 147 147 144 144 152 162
341 340 336 330 323 316 312 308 302 300 299 297 294 289 286 281 277 274 275 266 263 243 181 341 195 194 358 291 259 320 348 132 204 195 208 163 169 202 215 210 232 238 230 241 215 253 277 225 198 195 292 0 32 71 0 14 340 344 140 264 287 303 272 344 274 204 211 219 153 178 221 323 303 186 165 160 159 148 141 155 158 152 149 148 150 149 149 146
343 341 339 335 329 323 314 308 303 300 300 297 293 285 281 276 273 276 284 269 292 188 204 205 113 184 6 236 307 310 223 227 161 157 189 202 175 201 219 230 247 240 254 292 295 319 300 348 280 30 5 196 153 83 18 7 320 309 350 237 215 237 289 287 282 254 230 181 239 214 196 235 227 167 152 162 160 152 150 158 157 152 149 152 149 151 156 165
343 341 339 338 330 324 316 311 309 308 305 299 285 278 276 261 278 317 287 175 200 188 236 258 244 293 274 330 283 233 176 156 185 193 184 198 181 197 183 213 236 205 52 334 333 203 298 285 18 190 359 8 55 64 116 237 197 244 320 332 315 261 217 244 269 274 170 202 199 200 201 255 74 149 162 169 169 157 156 154 151 150 150 153 158 160 167 170
343 342 340 338 335 327 321 316 313 312 309 305 296 278 270 239 338 208 244 173 119 31 5 234 123 145 144 206 271 324 247 201 132 134 219 178 226 199 203 235 243 122 265 102 284 201 332 316 20 31 263 301 233 160 174 229 200 228 225 203 205 277 289 242 259 252 154 179 194 158 187 209 243 149 193 179 181 155 133 139 147 151 152 159 164 166 173 183
342 341 339 339 336 329 321 316 311 313 320 324 342 23 108 37 3 33 3 247 226 206 234 190 208 269 309 289 261 227 287 182 143 214 197 190 131 178 235 204 249 126 116 187 277 269 128 171 212 217 220 227 235 196 201 228 234 245 198 171 249 284 305 288 283 245 150 136 176 176 169 46 326 237 139 70 111 125 137 145 146 153 158 163 165 170 181 190
340 339 337 337 336 333 324 320 316 315 315 328 303 322 284 166 67 295 217 225 223 232 235 228 192 217 238 289 296 316 290 254 192 203 209 169 150 118 241 160 184 231 221 194 175 272 81 209 250 226 219 207 219 215 222 266 218 187 84 27 310 340 320 307 321 18 36 110 337 57 112 158 203 252 149 143 142 162 157 152 156 165 172 170 167 168 174 191
340 337 335 335 335 334 327 320 322 327 328 343 352 255 274 223 196 168 24 303 246 224 227 238 221 247 251 249 261 267 306 249 225 225 251 145 208 163 281 168 158 218 281 340 13 339 120 207 242 235 229 231 268 259 203 217 276 333 44 239 329 311 252 293 336 30 0 85 188 218 136 196 240 264 132 156 164 184 173 169 172 164 170 171 172 169 162 159
338 337 335 334 333 331 331 319 320 345 343 115 181 208 239 228 4 347 342 259 284 199 214 224 236 239 257 253 250 171 212 240 210 224 208 157 133 189 163 169 192 218 225 127 197 197 282 275 241 237 201 178 269 261 147 38 44 276 320 47 253 256 26 312 308 345 14 95 325 343 65 276 305 291 136 169 153 181 188 173 167 166 167 175 182 173 159 160
337 336 333 332 330 330 324 324 305 314 202 211 238 223 248 280 299 335 19 262 294 295 204 219 201 220 238 220 208 187 209 214 204 215 210 146 164 175 159 186 202 217 241 201 192 188 219 242 260 291 182 181 210 212 144 84 298 304 190 183 147 226 245 192 277 334 345 355 76 50 29 349 1 21 12 71 186 154 181 161 173 198 182 180 170 166 162 165
334 333 334 331 330 327 322 311 325 240 186 184 246 246 256 263 258 188 145 320 339 279 214 229 193 226 235 157 237 206 214 215 208 179 182 158 156 114 216 150 143 235 227 208 174 242 268 264 265 265 219 186 181 219 218 127 317 316 259 197 216 207 211 292 313 36 25 342 336 106 25 311 305 334 264 284 121 188 184 169 189 185 177 151 177 182 172 153
332 328 331 331 328 330 309 333 283 336 281 259 245 281 300 308 251 170 118 74 295 268 283 264 139 251 157 226 135 188 122 226 200 190 164 188 171 169 113 214 163 229 223 222 215 207 224 243 193 211 169 175 166 181 214 142 185 102 276 179 190 178 197 236 293 54 20 57 288 77 142 265 325 339 296 297 186 190 186 198 181 171 183 184 190 178 171 164
327 325 330 331 329 338 5 299 325 294 314 282 95 340 319 309 302 104 44 346 344 242 180 306 190 312 203 207 169 131 297 256 197 155 172 158 188 155 160 229 298 226 163 179 47 297 290 292 179 138 130 129 102 185 236 138 113 231 239 176 155 122 119 137 118 130 230 245 311 40 104 159 316 294 262 21 99 213 206 221 188 183 184 185 186 184 172 167
325 326 325 325 322 334 214 317 337 315 241 271 343 323 313 300 309 45 83 21 325 264 120 236 230 355 226 229 153 172 206 168 84 236 184 182 149 151 196 216 193 186 237 58 281 255 216 282 167 174 123 116 172 202 215 135 134 215 257 205 170 150 163 145 102 93 143 128 292 318 359 61 279 270 304 149 121 239 225 187 191 189 182 181 181 185 168 163
321 321 322 320 320 312 204 191 193 246 235 320 316 308 307 325 70 117 126 107 252 49 284 152 289 80 258 77 191 199 243 88 165 247 184 152 179 131 207 231 191 190 207 142 197 293 290 202 212 168 125 183 225 222 180 146 208 279 213 211 162 108 104 119 109 86 356 64 291 268 270 157 287 279 325 338 73 205 162 196 177 168 169 162 163 170 154 150
317 316 318 320 323 63 123 210 231 241 301 319 302 301 325 46 39 41 346 246 333 314 223 246 133 219 181 159 217 214 232 205 166 34 150 160 215 43 230 161 182 205 259 338 176 215 247 263 182 127 168 201 195 226 170 176 205 224 41 41 4 29 10 16 69 95 65 52 256 235 328 131 288 274 257 357 274 188 135 92 2 118 140 150 149 150 156 158
315 313 311 313 256 269 347 272 248 244 252 282 307 333 56 36 110 105 193 232 278 241 308 21 264 102 161 165 214 233 238 225 241 128 325 134 174 206 354 353 19 51 33 5 327 310 332 317 163 251 180 110 114 87 299 185 132 132 61 104 43 344 9 28 350 49 110 279 259 276 153 109 137 293 303 254 293 174 144 126 109 118 135 142 134 138 147 147
314 309 298 287 219 275 182 232 234 64 342 330 355 53 68 47 7 140 215 325 44 281 87 300 229 241 199 201 177 193 205 208 172 162 165 193 153 181 242 201 178 328 328 266 267 356 335 278 242 277 215 151 138 34 312 357 38 78 74 47 91 283 30 343 5 349 197 175 246 268 93 29 214 214 247 312 322 349 275 146 139 130 128 119 121 127 134 131
314 306 302 274 227 209 241 248 306 330 330 345 48 52 64 102 215 242 273 296 251 158 263 344 322 273 334 191 248 219 189 223 189 185 172 190 141 211 211 192 179 145 189 250 201 3 275 288 315 297 355 119 114 141 259 296 12 132 159 132 80 73 56 227 273 223 328 292 261 215 77 200 244 300 249 269 314 229 110 59 87 115 117 113 112 107 103 102
312 309 304 224 192 210 229 227 225 273 9 30 79 43 61 93 241 236 220 243 244 337 347 353 303 313 352 164 256 216 181 230 158 208 172 183 128 205 304 290 164 91 129 216 192 202 15 347 302 135 281 248 113 164 180 175 159 203 157 141 173 141 160 197 190 190 204 205 275 306 64 236 87 213 311 37 67 77 69 83 83 70 81 93 90 88 89 90
312 297 257 262 233 234 228 228 186 79 52 63 60 90 140 231 246 217 236 277 280 297 279 292 265 285 305 323 327 258 195 245 210 147 184 135 221 177 189 227 217 139 109 125 260 97 206 202 256 229 225 156 174 192 146 91 43 284 119 83 87 218 143 168 201 150 210 178 356 329 202 189 136 254 328 20 91 83 91 87 76 63 56 76 79 77 80 80
311 298 224 252 206 246 186 199 170 176 114 68 88 153 200 190 208 191 231 198 273 331 332 332 299 136 250 310 326 294 171 123 260 176 332 177 200 194 215 190 183 178 138 166 203 196 34 277 264 323 16 169 197 150 216 115 109 260 60 77 223 180 119 95 46 293 100 52 254 200 349 320 301 5 60 49 91 109 104 114 110 109 98 74 81 83 76 77
329 325 340 254 246 179 156 148 154 143 97 99 110 228 207 266 218 272 276 244 329 343 319 348 298 180 171 314 276 340 345 245 284 197 276 356 351 313 279 258 193 166 177 143 321 175 142 238 298 56 17 346 284 177 165 145 149 69 88 236 81 80 111 123 177 342 63 138 254 333 188 289 101 247 343 22 26 72 138 142 129 129 129 118 123 117 111 105
314 297 253 247 237 167 138 145 135 122 93 99 180 223 215 229 208 228 294 319 322 336 319 261 268 149 235 106 302 321 348 331 291 35 237 229 255 218 299 308 264 185 165 161 123 248 110 343 309 330 22 299 351 53 14 340 50 154 194 200 92 271 304 318 91 268 92 258 261 332 158 78 124 253 334 352 173 25 354 29 122 128 123 120 119 105 98 94
248 336 321 258 247 150 139 142 124 121 90 100 227 155 271 244 279 277 274 278 279 291 287 235 218 246 165 171 183 202 145 244 258 279 206 248 196 353 338 327 1 64 127 107 74 200 55 148 300 299 38 303 8 56 8 311 330 37 97 23 95 96 165 102 199 176 119 228 85 285 45 176 247 218 268 274 240 141 129 68 3 76 125 126 120 108 96 89
350 22 289 271 25 132 133 123 93 93 91 178 209 229 249 286 276 274 272 253 275 202 229 241 200 269 197 203 176 168 155 239 183 240 122 304 42 298 7 337 222 299 63 80 118 95 82 110 181 278 303 33 41 8 37 355 358 336 20 348 26 24 213 109 46 95 158 170 164 162 37 282 273 231 305 302 230 170 129 118 123 122 100 110 119 119 112 110
282 119 273 269 35 137 119 89 96 158 166 245 168 217 260 268 307 287 289 274 276 246 240 239 195 171 211 130 293 189 155 196 266 278 145 294 108 5 312 333 337 346 82 45 54 350 80 16 192 310 22 41 212 231 4 329 256 239 197 209 160 115 82 138 224 338 99 90 209 106 225 262 272 241 237 242 166 122 145 138 142 144 143 132 130 116 117 110
37 2 260 276 19 161 116 121 284 193 137 179 225 194 246 242 254 266 275 276 234 256 229 236 253 206 197 210 192 182 135 207 200 192 16 132 262 155 327 14 15 333 87 75 159 244 146 147 93 100 192 218 250 286 283 24 92 111 110 15 64 100 102 98 127 264 19 262 114 143 114 269 241 211 198 220 186 144 142 123 116 113 111 113 91 95 98 116
52 227 273 304 327 140 93 70 8 358 271 230 223 252 247 268 268 284 293 290 295 232 222 54 311 337 287 7 340 46 341 174 164 184 163 82 11 282 102 10 45 4 57 333 25 298 67 73 43 309 308 286 304 163 58 34 37 23 5 29 38 13 174 162 170 187 132 349 101 26 83 255 285 291 241 209 117 86 59 115 121 96 97 99 107 106 108 97
278 293 320 326 18 67 92 140 193 234 253 294 233 256 218 253 265 280 272 301 285 299 142 191 340 64 281 15 58 90 49 60 34 124 104 145 185 235 287 41 70 34 67 229 131 259 71 296 114 46 355 341 345 358 5 347 49 79 307 342 33 30 26 11 76 42 90 252 171 119 185 278 268 318 64 83 82 79 95 55 85 111 99 101 109 108 107 114
292 274 258 309 357 30 104 257 166 211 243 255 275 291 297 267 224 229 239 318 356 355 2 31 3 321 33 332 118 75 54 112 124 352 61 190 182 174 189 223 120 98 103 191 139 120 93 178 93 117 137 141 309 310 323 342 312 288 327 6 10 54 32 41 29 358 100 286 86 105 198 251 276 358 84 90 87 83 79 102 95 114 127 117 114 123 133 140
8 4 310 336 357 10 69 285 358 343 286 322 342 265 236 276 314 249 244 102 19 65 44 19 22 49 21 14 28 42 32 51 83 313 26 13 12 55 322 94 52 115 124 96 87 77 123 70 99 147 148 178 198 210 232 121 19 22 308 3 343 18 40 97 119 85 122 193 69 228 161 174 53 91 104 124 117 128 126 122 132 128 139 144 148 150 156 157
343 53 350 344 325 29 339 328 7 1 343 273 148 283 17 289 299 331 14 100 14 52 64 33 20 38 334 45 39 39 354 36 2 73 9 360 40 64 32 85 67 66 98 81 79 74 67 61 81 109 118 172 182 163 296 12 59 310 3 329 7 45 33 75 77 305 160 70 319 270 194 122 195 9 6 206 157 136 147 152 155 159 166 163 169 165 141 119
49 309 68 270 210 306 9 341 344 327 328 5 5 350 4 4 21 17 342 70 69 36 81 16 36 36 24 18 86 55 336 60 43 15 327 5 2 0 39 356 88 12 72 22 28 109 130 128 248 103 80 112 106 66 50 76 68 52 27 9 1 5 60 82 36 206 129 141 193 264 81 74 326 336 320 344 275 149 125 91 81 134 98 53 82 138 140 132
93 314 350 341 63 304 214 269 305 300 12 8 66 32 33 31 36 25 15 335 37 13 33 82 33 39 40 21 64 93 9 62 355 334 34 328 6 360 29 348 349 4 40 28 21 84 88 3 187 105 100 47 32 42 45 52 30 50 31 8 108 79 86 107 80 49 101 116 160 129 94 80 13 338 11 341 2 66 65 70 53 40 34 77 79 58 39 50
2 26 329 355 277 300 315 327 342 10 43 2 43 10 39 31 39 27 32 29 31 23 9 79 49 52 53 50 45 75 42 97 96 340 330 13 328 32 31 104 289 330 27 47 78 351 101 278 130 70 69 348 339 45 58 65 67 46 18 21 26 89 63 40 78 46 70 62 67 87 76 50 342 326 317 350 34 60 54 45 43 47 50 54 57 55 64 73
279 200 256 339 12 357 2 19 8 11 35 1 15 15 42 32 34 31 59 38 59 60 37 79 30 45 33 45 41 39 6 18 284 226 258 298 304 289 49 287 39 11 352 9 31 323 71 202 52 70 77 321 321 72 37 71 80 77 26 5 356 13 63 358 50 320 116 145 113 69 55 16 301 345 2 32 55 59 65 54 44 35 43 50 51 36 24 358
274 257 307 164 72 349 25 7 30 41 23 342 341 19 21 40 59 24 60 14 38 47 45 103 105 85 25 31 18 341 306 298 293 280 255 259 246 276 221 252 278 137 175 54 217 87 145 111 85 86 77 257 303 80 74 52 40 12 342 308 313 53 106 91 43 27 28 132 75 104 177 280 302 307 72 42 61 62 58 45 48 39 32 38 44 44 33 24